Tracking 23611 objects as of 18-Sep-2021
HD Live streaming from Space Station
objects crossing your sky now
Track INSPIRATION-4

STARLINK-1739

Track STARLINK-1739 now!
10-day predictions
STARLINK-1739 is classified as:


NORAD ID: 46363
Int'l Code: 2020-062AQ
Perigee: 552.8 km
Apogee: 556.0 km
Inclination: 53.1 °
Period: 95.6 minutes
Semi major axis: 6925 km
RCS: Unknown
Launch date: September 3, 2020
Source: United States (US)
Launch site: AIR FORCE EASTERN TEST RANGE (AFETR)
aabbcc
Your satellite tracking list
Your tracking list is empty




NASA's NSSDC Master Catalog

Two Line Element Set (TLE):
1 46363U 20062AQ  21260.97825591 -.00000913  00000-0 -42359-4 0  9991
2 46363  53.0528 105.6379 0002334  89.1796 270.9460 15.06389595 58855
Source of the keplerian elements: AFSPC